Location: Aubigny
(47.3043°N, 4.6431°E)
Time: 14:22:08
(UTC+00:00)

Daily predictions for brighter satellites

Satellite Brightness Start Highest point End
(mag) Time Altitude Azimuth Time Altitude Azimuth Time Altitude Azimuth
ADEOS Rocket 3.2 18:24:51 10° NNE 18:31:45 86° ESE 18:37:51 10° SSW
USA 234 4.1 18:26:51 10° ENE 18:32:25 29° SE 18:37:58 10° S
STARLINK-1203 3.7 18:30:18 10° SW 18:34:11 54° SE 18:38:04 10° ENE
STARLINK-1074 3.2 18:32:03 10° WNW 18:35:10 65° SSW 18:38:18 10° SE
H-2A R/B 2.5 18:30:30 10° SE 18:35:31 45° ENE 18:40:25 10° N
STARLINK-1087 3.2 18:32:32 10° WNW 18:35:38 64° SSW 18:38:43 10° SE
STARLINK-1088 3.2 18:32:59 10° WNW 18:36:05 64° SSW 18:39:10 10° SE
HJ-1C 3.3 18:33:11 10° SSE 18:36:29 69° ENE 18:39:52 10° N
STARLINK-1115 3.2 18:33:24 10° WNW 18:36:32 64° SSW 18:39:39 10° SE
STARLINK-1076 3.2 18:33:52 10° WNW 18:36:59 63° SSW 18:40:06 10° SE
SL-16 R/B 2.7 18:32:01 10° S 18:37:07 36° ESE 18:42:15 10° NE
STARLINK-1225 3.8 18:33:14 10° SW 18:37:12 53° SE 18:41:10 10° ENE
STARLINK-1092 3.2 18:34:18 10° WNW 18:37:26 62° SSW 18:40:33 10° SE
STARLINK-1080 3.2 18:34:48 10° WNW 18:37:53 62° SSW 18:40:58 10° SE
CSL-04 Rocket 4.0 18:32:43 10° S 18:38:01 70° WSW 18:43:18 10° NNW
STARLINK-1090 3.3 18:35:14 10° WNW 18:38:20 61° SSW 18:41:25 10° SE
STARLINK-1072 3.6 18:34:32 10° WNW 18:38:36 88° NNE 18:42:38 10° ESE
STARLINK-1104 4.4 18:34:43 10° WNW 18:38:42 43° NNE 18:42:40 10° E
STARLINK-1089 3.3 18:35:41 10° WNW 18:38:47 60° SSW 18:41:50 10° SE
STARLINK-1107 3.3 18:36:09 10° WNW 18:39:14 60° SSW 18:42:19 10° SE
Cosmos 2333 Rocket 3.9 18:34:06 10° WSW 18:39:21 37° NW 18:44:36 10° NNE
STARLINK-1230 3.7 18:37:56 10° SW 18:41:55 57° SE 18:45:56 10° ENE
Resurs 01 Rocket 3.5 18:39:49 10° E 18:42:12 14° ENE 18:44:35 10° NNE
STARLINK-1096 3.6 18:38:54 10° WNW 18:42:57 88° SSW 18:46:59 10° ESE
STARLINK-1144 4.4 18:39:43 10° WNW 18:43:42 44° NNE 18:47:41 10° E
STARLINK-1233 2.9 18:41:26 10° WSW 18:44:33 88° NNW 18:47:43 10° ENE
STARLINK-1212 2.9 18:41:53 10° WSW 18:45:01 88° NW 18:48:10 10° ENE
STARLINK-1105 2.9 18:42:19 10° WSW 18:45:27 87° NNW 18:48:37 10° ENE
STARLINK-1206 2.9 18:42:49 10° WSW 18:45:56 86° NNW 18:49:04 10° ENE
FREGAT/IRIS 3.1 18:43:37 10° SE 18:46:06 33° ENE 18:48:36 10° N
STARLINK-1247 2.9 18:43:16 10° WSW 18:46:23 86° NNW 18:49:30 10° ENE
STARLINK-1243 3.6 18:42:43 10° SW 18:46:44 61° SE 18:50:46 10° ENE
STARLINK-1227 2.9 18:43:41 10° WSW 18:46:48 85° NNW 18:49:58 10° ENE
Cosmos 1302 Rocket 4.4 18:42:08 10° NNW 18:47:16 48° ENE 18:52:22 10° SE
STARLINK-1218 2.9 18:44:10 10° WSW 18:47:17 85° NNW 18:50:25 10° ENE
Abrixas rocket 4.0 18:46:04 10° S 18:47:38 13° SE 18:49:06 10° ESE
STARLINK-1226 2.9 18:44:37 10° WSW 18:47:44 84° NNW 18:50:52 10° ENE
STARLINK-1079 3.6 18:43:57 10° WNW 18:48:00 82° SSW 18:52:02 10° ESE
STARLINK-1254 2.9 18:45:02 10° WSW 18:48:10 84° NNW 18:51:19 10° ENE
STARLINK-1215 2.9 18:45:31 10° WSW 18:48:38 83° NNW 18:51:46 10° ENE
STARLINK-1103 4.3 18:44:41 10° WNW 18:48:42 45° NNE 18:52:41 10° E
STARLINK-1231 2.9 18:45:57 10° WSW 18:49:05 82° NNW 18:52:13 10° ENE
STARLINK-1232 2.9 18:46:53 10° WSW 18:49:58 81° NNW 18:53:07 10° ENE
Cosmos 304 Rocket 3.8 18:45:12 10° NNW 18:50:01 89° W 18:54:48 10° SSE
STARLINK-1217 2.9 18:47:19 10° WSW 18:50:26 81° NNW 18:53:34 10° ENE
Cosmos 1953 4.0 18:48:24 10° ESE 18:50:33 14° E 18:52:44 10° NE
Cosmos 1709 Rocket 4.1 18:44:28 10° N 18:50:35 55° ENE 18:56:35 10° SSE
STARLINK-1208 3.0 18:47:44 10° WSW 18:50:52 80° NNW 18:54:01 10° ENE
SeaSat 1 3.6 18:46:31 10° NNE 18:51:15 48° NW 18:55:58 10° SW
STARLINK-1229 3.0 18:48:13 10° WSW 18:51:19 79° NNW 18:54:27 10° ENE
STARLINK-1236 3.6 18:47:27 10° SW 18:51:30 66° SE 18:55:33 10° ENE
STARLINK-1271 3.0 18:48:40 10° WSW 18:51:47 79° NNW 18:54:55 10° ENE
STARLINK-1270 3.0 18:49:08 10° WSW 18:52:14 78° NNW 18:55:22 10° ENE
STARLINK-1116 3.6 18:48:22 10° WNW 18:52:26 78° SSW 18:56:26 10° SE
STARLINK-1154 3.0 18:49:35 10° WSW 18:52:42 78° NNW 18:55:49 10° ENE
STARLINK-1197 3.0 18:50:29 10° WSW 18:53:36 77° NNW 18:56:44 10° ENE
STARLINK-1101 4.3 18:49:40 10° WNW 18:53:42 47° NNE 18:57:32 11° E
Cosmos 1269 Rocket 4.1 18:48:49 10° S 18:53:59 58° ESE 18:59:12 10° NNE
STARLINK-1189 3.0 18:50:56 10° WSW 18:54:03 76° NNW 18:57:11 10° ENE
MONITOR-E 4.3 18:52:07 10° SE 18:54:36 39° ENE 18:57:07 10° N
STARLINK-1187 3.2 18:51:48 10° WSW 18:54:54 68° NNW 18:58:03 10° ENE
STARLINK-1188 3.0 18:51:51 10° WSW 18:54:57 75° NNW 18:58:05 10° ENE
STARLINK-1198 3.0 18:51:51 10° WSW 18:54:57 75° NNW 18:58:05 10° ENE
STARLINK-1235 3.3 18:52:30 10° WSW 18:55:37 62° NNW 18:58:46 10° ENE
CZ-4C R/B 4.4 18:51:18 10° WNW 18:55:52 24° NNW 19:01:06 10° NNE
STARLINK-1199 3.1 18:53:46 10° WSW 18:56:54 73° NNW 19:00:03 10° ENE
STARLINK-1191 3.1 18:54:14 10° WSW 18:57:21 72° NNW 19:00:30 10° ENE
STARLINK-1210 3.1 18:54:41 10° WSW 18:57:48 72° NNW 19:00:57 10° ENE
STARLINK-1221 3.1 18:55:08 10° WSW 18:58:16 71° NNW 19:01:24 10° ENE
STARLINK-1102 4.2 18:54:38 10° WNW 18:58:41 49° NNE 19:02:19 12° E
STARLINK-1219 3.1 18:55:35 10° WSW 18:58:43 71° NNW 19:01:52 10° ENE
STARLINK-1222 3.1 18:56:02 10° WSW 18:59:10 70° NNW 19:02:19 10° ENE
STARLINK-1211 3.1 18:56:30 10° WSW 18:59:37 70° NNW 19:02:46 10° ENE
ISS -2.9 18:56:34 10° WNW 18:59:46 42° N 19:02:41 12° E
STARLINK-1214 3.1 18:56:56 10° WSW 19:00:04 69° NNW 19:03:13 10° ENE
STARLINK-1245 3.1 18:57:25 10° WSW 19:00:32 69° NNW 19:03:39 10° ENE
STARLINK-1238 3.2 18:57:49 10° WSW 19:00:56 68° NNW 19:04:05 10° ENE
STARLINK-1269 3.5 18:57:14 10° SW 19:01:18 76° SSE 19:05:24 10° ENE
STARLINK-1094 3.8 18:57:38 10° WNW 19:01:40 68° SW 19:05:21 12° SE
Cosmos 2297 3.7 18:56:00 10° NNW 19:01:42 79° ENE 19:07:24 10° SSE
STARLINK-1205 3.2 18:58:44 10° WSW 19:01:50 67° NNW 19:04:58 10° ENE
Cosmos 1455 Rocket 3.0 18:57:31 10° S 19:01:51 82° E 19:06:15 10° N
BREEZE-M DEB (TANK) 4.4 18:52:56 10° W 19:02:16 68° N 19:05:20 12° E
STARLINK-1204 3.2 18:59:13 10° WSW 19:02:20 67° NNW 19:05:26 10° ENE
Cosmos 2084 Rocket 4.4 18:59:28 10° NNW 19:03:36 35° NE 19:06:58 14° E
STARLINK-1111 4.1 18:59:38 10° WNW 19:03:42 51° NNE 19:07:06 14° E
S3M 4.3 18:59:25 10° SSW 19:05:48 77° W 19:12:15 10° N
STARLINK-1200 3.5 19:02:03 10° SW 19:06:08 81° SSE 19:10:13 10° ENE
STARLINK-1117 3.8 19:02:29 10° WNW 19:06:31 63° SSW 19:10:00 13° SE
Cosmos 2237 Rocket 3.0 19:01:00 10° SW 19:06:32 57° WNW 19:12:07 10° NNE
Cosmos 1892 Rocket 4.4 19:04:15 10° NNW 19:08:39 55° W 19:13:01 10° S
STARLINK-1073 4.1 19:04:37 10° WNW 19:08:42 53° NNE 19:11:53 16° E
CZ-2C R/B 3.6 19:04:56 10° NE 19:09:05 24° E 19:13:12 10° SE
Cosmos 1626 Rocket 3.7 19:05:08 10° N 19:09:29 54° ENE 19:13:45 10° SSE
Cosmos 1805 4.4 19:06:20 10° SSW 19:10:07 47° WNW 19:13:56 10° N
STARLINK-1192 3.5 19:06:48 10° WSW 19:10:53 86° SSE 19:14:59 10° ENE
STARLINK-1078 3.9 19:06:57 10° WNW 19:10:57 59° SW 19:14:17 14° SE
Cosmos 2278 Rocket 4.2 19:07:37 10° NW 19:12:24 29° WSW 19:17:10 10° SSW
STARLINK-1121 4.0 19:09:35 10° WNW 19:13:40 55° NNE 19:16:39 17° E
STARLINK-1108 4.0 19:11:49 10° WNW 19:15:48 55° SW 19:18:58 15° SE
STARLINK-1244 3.6 19:11:43 10° WSW 19:15:48 89° NNW 19:19:54 10° ENE
ARGOS 3.1 19:10:28 10° SSE 19:15:52 81° ENE 19:21:17 10° NNW
Cosmos 1602 Rocket 3.8 19:13:06 10° N 19:17:30 52° ENE 19:21:45 10° SSE
STARLINK-1106 3.9 19:14:33 10° WNW 19:18:39 58° NNE 19:21:25 19° E
STARLINK-1138 3.6 19:16:18 10° WSW 19:20:24 84° NNW 19:24:30 10° ENE
STARLINK-1071 4.2 19:16:29 10° WNW 19:20:26 51° SW 19:23:26 16° SE
STARLINK-1234 3.9 19:18:36 10° W 19:21:27 41° NNW 19:24:04 12° NE
USA 186 2.2 19:19:43 10° S 19:23:08 69° W 19:26:31 10° NNW
MOS 1 Rocket 4.2 19:18:50 10° NNE 19:23:33 33° E 19:28:24 10° SSE
STARLINK-1112 3.9 19:19:33 10° WNW 19:23:40 61° NNE 19:26:14 22° E
Meteor 1-24 Rocket 4.4 19:18:52 10° NNW 19:24:17 55° W 19:29:29 10° S
STARLINK-1110 4.3 19:20:58 10° WNW 19:24:53 47° SW 19:27:43 17° SSE
STARLINK-1143 3.6 19:21:12 10° WSW 19:25:18 80° NNW 19:29:16 11° ENE
STARLINK-1124 4.3 19:22:21 10° WNW 19:26:20 47° SW 19:29:13 17° SSE
MetOp-A 4.2 19:21:24 10° SSE 19:26:34 58° ENE 19:31:50 10° N
CZ-2C R/B 3.1 19:23:15 10° S 19:28:18 75° WSW 19:33:10 10° NNW
STARLINK-1128 3.8 19:24:32 10° WNW 19:28:39 64° NNE 19:31:01 24° E
Cosmos 1544 Rocket 3.9 19:25:05 10° SSW 19:29:28 70° W 19:33:55 10° N
Cosmos 1470 2.6 19:27:35 10° S 19:31:27 80° E 19:35:22 10° NNE
Cosmos 1437 4.2 19:29:20 10° NNE 19:31:24 20° ENE 19:31:24 20° ENE
STARLINK-1241 3.7 19:29:35 10° WSW 19:33:38 72° NNW 19:37:13 13° ENE
STARLINK-1113 3.7 19:29:31 10° WNW 19:33:39 67° NNE 19:35:47 27° E
SPOT 3 Rocket 3.5 19:29:49 10° SSE 19:35:01 75° ENE 19:40:15 10° NNW
Cosmos 1825 Rocket 4.3 19:32:27 10° N 19:36:29 33° ENE 19:37:53 27° ESE
IRIDIUM 103 4.3 19:32:10 10° N 19:37:21 60° E 19:42:00 13° SSE
STARLINK-1239 3.8 19:34:32 10° WSW 19:38:34 68° NNW 19:41:56 14° ENE
STARLINK-1119 3.7 19:34:29 10° WNW 19:38:38 71° NNE 19:40:34 30° ESE
Cosmos 2369 Rocket 2.4 19:34:28 10° NNW 19:40:05 54° ENE 19:43:14 25° SE
SJ-6B 3.3 19:37:12 10° S 19:41:13 63° W 19:45:20 10° NNW
Cosmos 1726 2.7 19:42:56 34° ESE 19:43:14 35° E 19:46:41 10° NNE
STARLINK-1240 3.9 19:39:16 10° WSW 19:43:18 65° NNW 19:46:29 16° ENE
STARLINK-1114 3.6 19:39:31 10° WNW 19:43:40 75° NNE 19:45:24 34° ESE
Ariane Rocket 4.3 19:39:35 10° SSW 19:44:20 40° W 19:49:08 10° NNW
Aureole 2 Rocket 2.7 19:41:50 10° NNW 19:45:16 47° ENE 19:45:56 41° E
Cosmos 1758 3.4 19:41:21 10° SSW 19:45:27 79° W 19:49:33 10° N
Cosmos 1758 Rocket 3.8 19:42:05 10° N 19:46:20 48° ENE 19:47:54 32° SE
STARLINK-1216 4.0 19:44:02 10° WSW 19:48:03 62° NNW 19:51:02 17° NE
NOSS 3-3 (A) 4.3 19:42:56 10° S 19:48:17 39° ESE 19:54:13 10° NE
NOSS 3-3 (C) 4.3 19:43:04 10° S 19:48:23 39° ESE 19:54:18 10° NE
STARLINK-1130 (DARKSAT) 3.6 19:44:28 10° WNW 19:48:38 80° NNE 19:50:10 38° ESE
CZ-2C R/B 3.7 19:44:33 10° NNE 19:49:21 85° ESE 19:54:03 10° SSW
STARLINK-1209 4.4 19:48:51 10° WNW 19:51:31 30° NNW 19:52:50 21° NNE
Cosmos 1953 Rocket 4.3 19:48:43 10° N 19:52:47 34° ENE 19:53:22 32° E
STARLINK-1237 4.1 19:48:50 10° WSW 19:52:50 59° NNW 19:55:38 19° NE
STARLINK-1084 3.5 19:49:26 10° WNW 19:53:36 84° NNE 19:54:56 42° ESE
STARLINK-1228 4.4 19:51:05 10° WNW 19:53:41 29° NNW 19:54:50 22° NNE
Terra 3.9 19:53:53 13° ENE 19:54:08 13° NE 19:56:10 10° NNE
Cosmos 2184 Rocket 4.0 19:49:11 10° N 19:55:30 66° ENE 19:59:37 22° SSE
IRIDIUM 106 4.2 19:50:24 10° N 19:55:40 86° E 20:00:12 14° S
Spot 2 Rocket 4.1 19:55:41 32° ESE 19:57:12 40° ENE 20:01:57 10° N
STARLINK-1202 4.1 19:53:35 10° W 19:57:36 56° NNW 20:00:11 20° NE
STARLINK-1098 3.5 19:54:26 10° WNW 19:58:35 89° NE 19:59:43 47° ESE
Cosmos 1606 Rocket 3.9 19:59:07 40° ESE 19:59:27 41° E 20:03:37 10° NNE
Cosmos 1943 Rocket 2.1 19:55:58 10° NNW 20:01:32 86° WSW 20:04:35 28° SSE
SPOT 1/Viking Rocket 4.5 20:00:50 28° E 20:01:47 30° ENE 20:06:17 10° N
Meteor 1-21 Rocket 4.2 19:56:25 10° NNW 20:02:01 85° W 20:06:08 19° S
STARLINK-1123 3.5 19:59:24 10° WNW 20:03:34 86° SSW 20:04:30 53° SE
Cosmos 1943 3.6 20:01:04 26° SSE 20:03:36 40° ESE 20:08:51 10° NE
STARLINK-1246 4.3 20:00:50 10° W 20:04:50 53° NNW 20:07:12 23° NE
STARLINK-67 4.5 20:02:52 10° WNW 20:05:01 23° N 20:05:15 22° N
Meteor 2-10 4.0 20:00:44 11° S 20:05:50 68° E 20:11:21 10° NNE
SL-8 R/B 3.6 20:01:15 10° WNW 20:06:03 87° N 20:07:35 44° E
STARLINK-1201 4.4 20:04:34 10° W 20:07:36 34° NNW 20:08:41 26° NNE
Resurs 1-3 3.9 20:05:31 23° S 20:08:13 67° WSW 20:12:36 10° NNW
STARLINK-1097 3.5 20:04:22 10° WNW 20:08:31 81° SSW 20:09:16 58° SE
ATLAS 2AS CENTAUR R/B 3.4 20:03:37 10° NW 20:11:02 46° NE 20:14:22 29° E
STARLINK-1224 4.4 20:08:00 10° W 20:11:58 49° NNW 20:13:58 26° NE
STARLINK-1203 4.4 20:09:26 10° W 20:13:17 46° NNW 20:15:06 26° NE
STARLINK-1099 3.5 20:09:22 10° WNW 20:13:30 75° SSW 20:14:04 63° SSE
H-2A R/B 4.0 20:10:35 10° SSW 20:15:05 28° W 20:19:32 10° NW
USA 234 3.2 20:09:23 10° NE 20:15:59 89° SSE 20:22:32 10° SW
USA 245 4.3 20:15:17 45° ESE 20:16:23 53° ENE 20:22:05 10° N
STARLINK-1225 4.4 20:12:37 10° W 20:16:35 48° NNW 20:18:23 28° NE
Cosmos 2154 Rocket 4.0 20:10:16 10° N 20:16:36 62° ENE 20:18:59 38° SE
Aureole 3 4.2 20:13:23 10° SSW 20:17:23 58° WNW 20:22:31 10° N
Resurs 01 Rocket 1.7 20:16:28 38° S 20:18:06 75° WSW 20:22:32 10° NNW
STARLINK-1104 3.5 20:14:21 10° WNW 20:18:29 70° SSW 20:18:51 65° S
DMSP B5D2-2 4.2 20:13:39 10° N 20:18:52 77° WNW 20:24:04 10° SSW
Cosmos 1328 3.8 20:16:38 10° N 20:20:25 62° ENE 20:20:25 62° ENE
STARLINK-1233 4.5 20:17:49 10° WNW 20:20:40 30° N 20:21:02 29° N
STARLINK-1212 4.5 20:18:18 10° WNW 20:21:07 30° N 20:21:27 29° N
SL-16 R/B 3.5 20:15:50 10° SW 20:21:10 41° NW 20:26:33 10° NNE
STARLINK-1230 4.5 20:17:24 10° W 20:21:21 46° NNW 20:22:57 30° NE
STARLINK-1105 4.5 20:18:44 10° WNW 20:21:34 30° N 20:21:53 29° N
Cosmos 2228 2.9 20:22:39 66° E 20:22:39 66° E 20:26:50 10° NNE
Abrixas rocket 4.3 20:19:52 10° WSW 20:20:46 18° SW 20:20:46 18° SW
STARLINK-1144 3.6 20:19:21 10° WNW 20:23:28 65° SSW 20:23:38 64° SSW
Cosmos 967 Rocket 4.4 20:17:09 10° SSW 20:23:29 62° ESE 20:29:52 10° NE
Cosmos 1953 3.1 20:23:07 13° SSW 20:26:31 49° WNW 20:30:24 10° N
STARLINK-1103 3.8 20:24:19 10° WNW 20:28:25 61° SW 20:28:25 61° SW
Cosmos 1992 Rocket 4.4 20:26:04 10° NNW 20:31:13 60° WSW 20:33:07 37° S
STARLINK-1101 4.0 20:29:19 10° WNW 20:33:11 56° SW 20:33:11 56° SW
Nadezhda 1 Rocket 3.9 20:29:47 28° S 20:33:23 78° E 20:39:47 10° N
ISS -2.4 20:33:24 10° WNW 20:35:39 38° W 20:35:39 38° W
STARLINK-1102 4.2 20:34:17 10° WNW 20:37:58 50° WSW 20:37:58 50° WSW
Cosmos 2058 Rocket 4.0 20:42:37 39° NE 20:42:37 39° NE 20:45:39 10° NNE
MetOp-B 4.1 20:40:10 51° S 20:41:33 79° WSW 20:46:57 10° NNW
Cosmos 1603 3.6 20:37:06 10° SSW 20:42:45 85° WNW 20:48:24 10° NNE
Cosmos 2084 Rocket 4.4 20:38:58 10° NW 20:43:10 40° WSW 20:43:30 40° SW
STARLINK-1111 4.4 20:39:18 10° WNW 20:42:45 45° WSW 20:42:45 45° WSW
SPOT 5 3.7 20:44:26 33° NE 20:44:26 33° NE 20:47:26 10° N
Cosmos 2251 Rocket 4.0 20:38:23 10° SW 20:43:41 61° WNW 20:49:02 10° NNE
Meteor 1-16 Rocket 4.3 20:40:19 20° SSW 20:44:02 69° WNW 20:49:31 10° N
Cosmos 1703 3.7 20:40:16 10° NNW 20:43:49 62° WNW 20:43:49 62° WNW
IGS 5A 4.0 20:49:01 54° N 20:49:01 54° N 20:52:19 10° N
ERS-1 Rocket 3.2 20:48:38 54° NE 20:48:38 54° NE 20:53:12 10° N
Landsat 7 3.7 20:49:40 79° NE 20:49:40 79° NE 20:54:15 10° NNW
CZ-2C R/B 3.3 20:44:39 10° N 20:49:40 50° WNW 20:54:38 10° SW
Cosmos 1656 Rocket 3.6 20:56:02 10° NNW 21:01:44 79° WSW 21:02:03 76° SSW
Meteor 1-11 4.4 20:57:48 10° NNW 21:03:35 70° W 21:04:29 59° SSW
Aureole 1 Rocket 4.2 21:01:50 45° S 21:04:25 73° ESE 21:11:00 10° NNE
Cosmos 1726 Rocket 4.5 21:10:43 46° WNW 21:10:43 46° WNW 21:14:56 10° N
COSMOS 2455 3.3 21:09:20 10° NNW 21:15:09 50° NE 21:15:09 50° NE
Cosmos 2341 Rocket 4.0 21:15:52 10° N 21:22:15 78° W 21:22:43 74° SW
Cosmos 1461 4.5 21:18:01 10° NNW 21:20:56 35° N 21:20:56 35° N
Cosmos 2369 Rocket 3.7 21:19:04 10° NW 21:23:47 27° WSW 21:25:04 25° SW
NOSS 3-4 (A) 3.7 21:22:40 10° NW 21:29:40 87° SW 21:30:09 80° SSE
NOSS 3-4 (C) 3.7 21:22:46 10° NW 21:29:46 88° SW 21:30:14 80° SSE
Terra 2.9 21:32:46 41° N 21:32:46 41° N 21:35:54 10° NNW
Cosmos 1943 4.5 21:42:26 10° WSW 21:47:40 38° NW 21:52:59 10° NNE
Cosmos 2218 Rocket 4.1 21:43:08 10° N 21:48:36 69° NW 21:48:36 69° NW
USA 234 4.1 21:52:31 10° NE 21:58:41 46° NNW 22:04:51 10° W
Cosmos 2181 Rocket 4.3 22:00:16 61° WNW 22:00:16 61° WNW 22:06:02 10° N
ATLAS 2AS CENTAUR R/B 3.2 21:54:54 10° NW 22:01:48 55° WSW 22:01:48 55° WSW
Cosmos 1697 Rocket 4.3 22:06:27 10° NNW 22:10:12 27° NNE 22:10:12 27° NNE
Mayak 1.6 22:14:57 10° N 22:15:31 14° N 22:15:31 14° N
Cosmos 1980 Rocket 4.0 22:32:03 10° N 22:35:28 24° NNE 22:35:28 24° NNE
CZ-4C R/B 4.0 22:31:15 10° NNW 22:37:24 35° NNE 22:38:44 32° NE
ATLAS 5 CENTAUR R/B 4.5 23:20:05 14° NNE 23:20:05 14° NNE 23:20:59 10° NNE
USA 234 4.4 23:34:58 10° ENE 23:40:54 38° N 23:46:50 10° WNW
SL-16 R/B 4.2 23:52:44 25° ENE 23:52:47 25° ENE 23:57:41 10° N
